Jacksonville, IL

9:05 AM CDT on May 24, 2017 (GMT -0500)
Jacksonville Municipal

Weather History for KIJX - April, 2013

Change the Weather History Date:

Friday, April 26, 2013

  Actual Average (KSPI) Record (KSPI)
Temperature  
Mean Temperature 52 °F -  
Max Temperature 62 °F 71 °F 89 °F (1986)
Min Temperature 43 °F 47 °F 32 °F (1976)
Degree Days  
Heating Degree Days 12    
Growing Degree Days 2 (Base 50)    
Moisture  
Dew Point 41 °F    
Average Humidity 65    
Maximum Humidity 77    
Minimum Humidity 54    
Precipitation  
Precipitation 0.00 in - - ()
Sea Level Pressure  
Sea Level Pressure 30.31 in    
Wind  
Wind Speed 9 mph (SSE)    
Max Wind Speed 22 mph    
Max Gust Speed 26 mph    
Visibility 10 miles    
Events      
Averages and records for this station are not official NWS values.
T = Trace of Precipitation, MM = Missing Value Source: NWS Daily Summary

Daily Weather History Graph

Daily Weather History Graph

Search for Another Location

Airport or City:

Trip Planner

Search our weather history database for the weather conditions in past years. The results will help you decide how hot, cold, wet, or windy it might be!

Date:

Astronomy

Apr. 26, 2013 Rise Set
Actual Time 6:07 AM CDT 7:50 PM CDT
Civil Twilight 5:38 AM CDT 8:19 PM CDT
Nautical Twilight 5:03 AM CDT 8:54 PM CDT
Astronomical Twilight 4:26 AM CDT 9:31 PM CDT
Moon 9:13 PM CDT (4/26) 6:35 AM CDT (4/26)
Length of Visible Light 14h 40m
Length of Day
13h 42m
Full, 99% of the Moon is Illuminated
Apr 26
Full
May 2
Last Quarter
May 9
New
May 17
First Quarter
May 24
Full

Hourly Weather History & Observations

Time (CDT) Temp. Windchill Dew Point Humidity Pressure Visibility Wind Dir Wind Speed Gust Speed Precip Events Conditions
12:15 AM 47.3 °F - 34.2 °F 60% 30.30 in 10.0 mi SE 6.9 mph - N/A   Clear
12:35 AM 47.5 °F - 34.2 °F 60% 30.31 in 10.0 mi SE 6.9 mph - N/A   Clear
12:55 AM 47.3 °F - 34.5 °F 61% 30.31 in 10.0 mi SE 4.6 mph - N/A   Clear
1:15 AM 46.0 °F 43.9 °F 34.3 °F 64% 30.31 in 10.0 mi SE 4.6 mph - N/A   Clear
1:35 AM 45.5 °F 43.2 °F 34.3 °F 65% 30.31 in 10.0 mi SE 4.6 mph - N/A   Clear
1:55 AM 45.3 °F 43.0 °F 34.7 °F 66% 30.31 in 10.0 mi ESE 4.6 mph - N/A   Clear
2:15 AM 44.6 °F 42.2 °F 35.4 °F 70% 30.30 in 10.0 mi ESE 4.6 mph - N/A   Clear
2:35 AM 43.2 °F 39.0 °F 35.2 °F 74% 30.29 in 10.0 mi ESE 6.9 mph - N/A   Clear
2:55 AM 43.7 °F 39.1 °F 35.6 °F 73% 30.28 in 10.0 mi ESE 8.1 mph - N/A   Clear
3:15 AM 43.5 °F 39.4 °F 35.6 °F 74% 30.28 in 10.0 mi ESE 6.9 mph - N/A   Clear
3:35 AM 43.9 °F 39.3 °F 35.8 °F 73% 30.28 in 10.0 mi ESE 8.1 mph - N/A   Clear
3:55 AM 43.2 °F 39.0 °F 35.6 °F 75% 30.28 in 10.0 mi ESE 6.9 mph - N/A   Clear
4:15 AM 43.7 °F 41.1 °F 35.6 °F 73% 30.29 in 10.0 mi ESE 4.6 mph - N/A   Clear
4:35 AM 43.5 °F 41.9 °F 35.4 °F 73% 30.30 in 10.0 mi ESE 3.5 mph - N/A   Clear
4:55 AM 43.0 °F 40.3 °F 35.6 °F 75% 30.30 in 10.0 mi ESE 4.6 mph - N/A   Clear
5:15 AM 44.1 °F 41.5 °F 35.6 °F 72% 30.29 in 10.0 mi SE 4.6 mph - N/A   Clear
5:35 AM 47.1 °F - 35.6 °F 64% 30.29 in 10.0 mi SE 8.1 mph - N/A   Clear
5:55 AM 48.2 °F - 35.6 °F 62% 30.29 in 10.0 mi SSE 8.1 mph - N/A   Clear
6:15 AM 48.2 °F - 35.6 °F 62% 30.29 in 10.0 mi SSE 9.2 mph - N/A   Clear
6:35 AM 48.0 °F - 36.1 °F 63% 30.29 in 10.0 mi SSE 11.5 mph - N/A   Clear
6:55 AM 48.6 °F - 36.7 °F 64% 30.30 in 10.0 mi SSE 9.2 mph 17.3 mph N/A   Clear
7:15 AM 49.1 °F - 37.0 °F 63% 30.31 in 10.0 mi SSE 10.4 mph - N/A   Clear
7:35 AM 49.6 °F - 37.4 °F 63% 30.31 in 10.0 mi SSE 11.5 mph - N/A   Clear
7:55 AM 50.0 °F - 37.8 °F 63% 30.32 in 10.0 mi SSE 11.5 mph 17.3 mph N/A   Clear
8:15 AM 50.9 °F - 38.1 °F 62% 30.32 in 10.0 mi SSE 12.7 mph 17.3 mph N/A   Clear
8:35 AM 52.0 °F - 38.8 °F 61% 30.32 in 10.0 mi South 12.7 mph 17.3 mph N/A   Clear
8:55 AM 53.4 °F - 39.7 °F 60% 30.33 in 10.0 mi South 12.7 mph 20.7 mph N/A   Clear
9:15 AM 54.7 °F - 40.1 °F 58% 30.33 in 10.0 mi South 13.8 mph 19.6 mph N/A   Clear
9:35 AM 55.4 °F - 40.6 °F 58% 30.34 in 10.0 mi South 16.1 mph 21.9 mph N/A   Clear
9:55 AM 55.8 °F - 41.7 °F 59% 30.33 in 10.0 mi South 13.8 mph 20.7 mph N/A   Clear
10:15 AM 55.8 °F - 41.7 °F 59% 30.35 in 10.0 mi South 11.5 mph 23.0 mph N/A   Clear
10:35 AM 55.9 °F - 42.4 °F 61% 30.35 in 10.0 mi South 10.4 mph - N/A   Clear
10:55 AM 56.1 °F - 43.3 °F 62% 30.35 in 10.0 mi South 11.5 mph 16.1 mph N/A   Clear
11:15 AM 58.3 °F - 44.6 °F 60% 30.35 in 10.0 mi South 8.1 mph - N/A   Clear
11:35 AM 58.5 °F - 45.0 °F 61% 30.36 in 10.0 mi South 13.8 mph 18.4 mph N/A   Scattered Clouds
11:55 AM 58.1 °F - 45.1 °F 62% 30.36 in 10.0 mi South 9.2 mph - N/A   Scattered Clouds
12:15 PM 58.5 °F - 45.5 °F 62% 30.35 in 10.0 mi South 8.1 mph - N/A   Scattered Clouds
12:35 PM 61.2 °F - 44.6 °F 54% 30.34 in 10.0 mi SSW 12.7 mph 19.6 mph N/A   Scattered Clouds
12:55 PM 62.6 °F - 45.5 °F 54% 30.33 in 10.0 mi South 13.8 mph 18.4 mph N/A   Clear
1:15 PM 61.9 °F - 45.1 °F 54% 30.32 in 10.0 mi South 13.8 mph 19.6 mph N/A   Clear
1:35 PM 61.7 °F - 45.1 °F 55% 30.32 in 10.0 mi SSW 21.9 mph 26.5 mph N/A   Scattered Clouds
1:55 PM 59.5 °F - 44.2 °F 57% 30.33 in 10.0 mi SSW 16.1 mph 25.3 mph N/A   Scattered Clouds
2:15 PM 58.8 °F - 44.2 °F 58% 30.33 in 10.0 mi SW 13.8 mph 20.7 mph N/A   Scattered Clouds
2:35 PM 58.5 °F - 43.9 °F 58% 30.32 in 10.0 mi SSW 12.7 mph 18.4 mph N/A   Mostly Cloudy
2:55 PM 58.3 °F - 43.9 °F 59% 30.32 in 10.0 mi SSW 13.8 mph 19.6 mph N/A   Mostly Cloudy
3:15 PM 58.5 °F - 44.1 °F 59% 30.31 in 10.0 mi SSW 13.8 mph - N/A   Overcast
3:35 PM 59.9 °F - 44.2 °F 56% 30.29 in 10.0 mi SSW 13.8 mph - N/A   Mostly Cloudy
3:55 PM 60.1 °F - 44.2 °F 56% 30.27 in 10.0 mi South 13.8 mph 17.3 mph N/A   Scattered Clouds
4:15 PM 60.3 °F - 43.9 °F 55% 30.27 in 10.0 mi SSE 15.0 mph - N/A   Mostly Cloudy
4:35 PM 59.9 °F - 44.4 °F 57% 30.27 in 10.0 mi South 11.5 mph 16.1 mph N/A   Overcast
4:55 PM 59.0 °F - 44.1 °F 58% 30.27 in 10.0 mi SSE 13.8 mph 17.3 mph N/A   Overcast
5:15 PM 58.6 °F - 45.1 °F 61% 30.28 in 10.0 mi South 11.5 mph 16.1 mph N/A   Overcast
5:35 PM 58.1 °F - 45.0 °F 62% 30.29 in 10.0 mi South 12.7 mph 17.3 mph N/A   Overcast
5:55 PM 57.6 °F - 45.0 °F 63% 30.30 in 10.0 mi South 11.5 mph - N/A   Overcast
6:15 PM 57.2 °F - 45.0 °F 64% 30.30 in 10.0 mi SSE 11.5 mph 17.3 mph N/A   Overcast
6:35 PM 56.8 °F - 45.0 °F 64% 30.29 in 10.0 mi SSE 11.5 mph - N/A   Overcast
6:55 PM 56.3 °F - 45.1 °F 66% 30.28 in 10.0 mi SSE 12.7 mph - N/A   Mostly Cloudy
7:15 PM 55.9 °F - 44.6 °F 66% 30.28 in 10.0 mi SSE 10.4 mph - N/A   Scattered Clouds
7:35 PM 55.0 °F - 44.6 °F 68% 30.29 in 10.0 mi SSE 8.1 mph 17.3 mph N/A   Scattered Clouds
7:55 PM 54.9 °F - 45.1 °F 70% 30.28 in 10.0 mi SSE 6.9 mph - N/A   Mostly Cloudy
8:15 PM 54.5 °F - 45.0 °F 70% 30.29 in 10.0 mi SSE 8.1 mph - N/A   Overcast
8:35 PM 54.0 °F - 45.0 °F 72% 30.30 in 10.0 mi SSE 6.9 mph - N/A   Overcast
8:55 PM 53.6 °F - 45.1 °F 73% 30.31 in 10.0 mi South 8.1 mph - N/A   Scattered Clouds
9:15 PM 53.2 °F - 45.1 °F 74% 30.32 in 10.0 mi SSE 9.2 mph - N/A   Scattered Clouds
9:35 PM 53.1 °F - 45.3 °F 75% 30.33 in 10.0 mi South 9.2 mph - N/A   Mostly Cloudy
9:55 PM 52.9 °F - 45.3 °F 75% 30.32 in 10.0 mi South 9.2 mph - N/A   Overcast
10:15 PM 52.7 °F - 45.1 °F 75% 30.32 in 10.0 mi South 6.9 mph - N/A   Overcast
10:35 PM 52.7 °F - 44.8 °F 74% 30.31 in 10.0 mi South 5.8 mph - N/A   Overcast
10:55 PM 52.7 °F - 44.6 °F 74% 30.31 in 10.0 mi South 6.9 mph - N/A   Overcast
11:15 PM 52.3 °F - 44.6 °F 75% 30.30 in 10.0 mi SSE 6.9 mph - N/A   Overcast
11:35 PM 52.0 °F - 44.6 °F 76% 30.30 in 10.0 mi SSE 5.8 mph - N/A   Mostly Cloudy
11:55 PM 51.4 °F - 44.6 °F 77% 30.30 in 10.0 mi SSE 5.8 mph - N/A   Scattered Clouds